Jaffrey, NH

1:08 PM EDT on May 24, 2017 (GMT -0400)
Jaffrey Airport-Silver Ranch

Weather History for KAFN - November, 2012

Change the Weather History Date:

Friday, November 9, 2012

  Actual Average Record
Temperature  
Mean Temperature 40 °F -  
Max Temperature 48 °F 44 °F 64 °F (2006)
Min Temperature 33 °F 28 °F 18 °F (2003)
Degree Days  
Heating Degree Days 24    
Moisture  
Dew Point 23 °F    
Average Humidity 56    
Maximum Humidity 75    
Minimum Humidity 29    
Precipitation  
Precipitation 0.00 in - - ()
Sea Level Pressure  
Sea Level Pressure 29.95 in    
Wind  
Wind Speed 8 mph (NNW)    
Max Wind Speed 12 mph    
Max Gust Speed 26 mph    
Visibility 10 miles    
Events      
Averages and records for this station are not official NWS values.
T = Trace of Precipitation, MM = Missing Value Source: NWS Daily Summary

Daily Weather History Graph

Daily Weather History Graph

Search for Another Location

Airport or City:

Trip Planner

Search our weather history database for the weather conditions in past years. The results will help you decide how hot, cold, wet, or windy it might be!

Date:

Astronomy

Nov. 09, 2012 Rise Set
Actual Time 6:32 AM EST 4:30 PM EST
Civil Twilight 6:02 AM EST 5:00 PM EST
Nautical Twilight 5:28 AM EST 5:34 PM EST
Astronomical Twilight 4:55 AM EST 6:07 PM EST
Moon 1:21 AM EST (11/9) 1:47 PM EST (11/9)
Length of Visible Light 10h 57m
Length of Day
9h 57m
Waning Crescent, 23% of the Moon is Illuminated
Nov 9
Waning Crescent
Nov 13
New
Nov 20
First Quarter
Nov 28
Full
Dec 6
Last Quarter

Hourly Weather History & Observations

Time (EST) Temp. Windchill Dew Point Humidity Pressure Visibility Wind Dir Wind Speed Gust Speed Precip Events Conditions
12:52 AM 34.0 °F 26.6 °F 27.0 °F 75% 29.83 in 10.0 mi NNW 9.2 mph - N/A   Overcast
1:02 AM 33.8 °F 26.4 °F 26.6 °F 75% 29.79 in 10.0 mi NNW 9.2 mph 18.4 mph N/A   Mostly Cloudy
1:37 AM 33.8 °F 27.7 °F 26.6 °F 75% 29.81 in 10.0 mi Variable 6.9 mph - N/A   Mostly Cloudy
1:52 AM 34.0 °F 25.5 °F 26.1 °F 73% 29.85 in 10.0 mi NNW 11.5 mph 20.7 mph N/A   Overcast
1:59 AM 33.8 °F 27.0 °F 26.6 °F 75% 29.81 in 10.0 mi NNW 8.1 mph 26.5 mph N/A   Mostly Cloudy
2:52 AM 34.0 °F 26.6 °F 26.1 °F 73% 29.87 in 10.0 mi North 9.2 mph - N/A   Scattered Clouds
3:07 AM 33.8 °F - 26.6 °F 75% 29.82 in 10.0 mi Calm Calm - N/A   Mostly Cloudy
3:42 AM 33.8 °F 27.0 °F 24.8 °F 70% 29.83 in 10.0 mi North 8.1 mph 16.1 mph N/A   Partly Cloudy
3:52 AM 34.0 °F 28.0 °F 25.0 °F 70% 29.88 in 10.0 mi North 6.9 mph 23.0 mph N/A   Partly Cloudy
4:52 AM 33.1 °F 26.9 °F 25.0 °F 72% 29.89 in 10.0 mi Variable 6.9 mph - N/A   Scattered Clouds
5:04 AM 33.8 °F 26.4 °F 24.8 °F 70% 29.85 in 10.0 mi NNW 9.2 mph 17.3 mph N/A   Mostly Cloudy
5:52 AM 34.0 °F 27.2 °F 24.1 °F 67% 29.91 in 10.0 mi North 8.1 mph 20.7 mph N/A   Scattered Clouds
6:52 AM 33.1 °F 26.9 °F 24.1 °F 70% 29.93 in 10.0 mi Variable 6.9 mph - N/A   Clear
7:52 AM 35.1 °F 30.1 °F 21.9 °F 59% 29.96 in 10.0 mi NNW 5.8 mph - N/A   Clear
8:52 AM 37.0 °F 31.6 °F 21.0 °F 52% 29.96 in 10.0 mi NNW 6.9 mph - N/A   Clear
9:52 AM 41.0 °F 39.0 °F 19.0 °F 41% 29.97 in 10.0 mi Variable 3.5 mph - N/A   Clear
10:52 AM 43.0 °F 38.8 °F 19.0 °F 38% 29.99 in 10.0 mi Variable 6.9 mph 20.7 mph N/A   Clear
11:52 AM 45.0 °F 40.6 °F 17.1 °F 33% 29.97 in 10.0 mi NNW 8.1 mph 17.3 mph N/A   Clear
12:52 PM 46.9 °F - 17.1 °F 30% 29.98 in 10.0 mi NNW 9.2 mph 16.1 mph N/A   Clear
1:52 PM 48.0 °F - 17.1 °F 29% 29.98 in 10.0 mi Variable 5.8 mph - N/A   Clear
2:52 PM 46.9 °F - 17.1 °F 30% 29.99 in 10.0 mi Variable 4.6 mph 19.6 mph N/A   Clear
3:52 PM 46.0 °F 41.9 °F 17.1 °F 31% 30.02 in 10.0 mi North 8.1 mph - N/A   Clear
4:52 PM 43.0 °F 39.5 °F 19.9 °F 40% 30.06 in 10.0 mi Variable 5.8 mph - N/A   Clear
5:52 PM 41.0 °F 35.8 °F 19.0 °F 41% 30.07 in 10.0 mi North 8.1 mph - N/A   Clear
6:52 PM 41.0 °F 35.2 °F 23.0 °F 49% 30.09 in 10.0 mi NW 9.2 mph - N/A   Clear
7:52 PM 42.1 °F 38.4 °F 23.0 °F 47% 30.09 in 10.0 mi Variable 5.8 mph - N/A   Mostly Cloudy
8:52 PM 43.0 °F 38.8 °F 25.0 °F 49% 30.10 in 10.0 mi West 6.9 mph - N/A   Overcast
9:52 PM 43.0 °F 39.5 °F 28.9 °F 58% 30.11 in 10.0 mi Variable 5.8 mph - N/A   Overcast
10:52 PM 42.1 °F 38.4 °F 28.9 °F 60% 30.11 in 10.0 mi Variable 5.8 mph - N/A   Overcast
11:52 PM 42.1 °F 38.4 °F 28.9 °F 60% 30.12 in 10.0 mi Variable 5.8 mph - N/A   Overcast